• In Hungary
  • List of Countries
  • For 7 days
  • Water Temperature
  • Satellite Maps
  • Weather Map
  • News
  • Weather Widgets
  • user-avatar
    Login

    Hourly Weather Lugovo

    Today, 23 April, Monday

    Time Temperature Precipitation Wind Pressure Humidity
    00:00 -2°C° 0 mm 2 mps 738 mmHg 81%
    01:00 -1°C° 0 mm 1 mps 739 mmHg 82%
    02:00 -1°C° 0 mm 1 mps 739 mmHg 84%
    03:00 -1°C° 0 mm 1 mps 739 mmHg 83%
    04:00 -1°C° 0 mm 1 mps 740 mmHg 82%
    05:00 -1°C° 0 mm 1 mps 740 mmHg 82%
    06:00 0°C° 0 mm 1 mps 740 mmHg 71%
    07:00 +1°C° 0 mm 2 mps 741 mmHg 60%
    08:00 +3°C° 0 mm 2 mps 741 mmHg 49%
    09:00 +4°C° 0 mm 2 mps 741 mmHg 44%
    10:00 +5°C° 0 mm 2 mps 741 mmHg 40%
    11:00 +7°C° 0 mm 2 mps 741 mmHg 35%
    12:00 +7°C° 0 mm 2 mps 740 mmHg 35%
    13:00 +8°C° 0 mm 2 mps 740 mmHg 34%
    14:00 +8°C° 0 mm 2 mps 740 mmHg 33%
    15:00 +8°C° 0 mm 2 mps 740 mmHg 35%
    16:00 +9°C° 0 mm 1 mps 739 mmHg 37%
    17:00 +8°C° 0 mm 1 mps 739 mmHg 39%
    18:00 +6°C° 0 mm 1 mps 739 mmHg 46%
    19:00 +4°C° 0 mm 1 mps 739 mmHg 52%
    20:00 +2°C° 0 mm 0 mps 739 mmHg 59%
    21:00 +2°C° 0 mm 1 mps 739 mmHg 61%
    22:00 +2°C° 0 mm 1 mps 739 mmHg 63%
    23:00 +1°C° 0 mm 1 mps 738 mmHg 65%

    Tomorrow, 24 April, Tuesday

    Time Temperature Precipitation Wind Pressure Humidity
    00:00 +1°C° 0 mm 1 mps 738 mmHg 66%
    01:00 -1°C° 0 mm 2 mps 738 mmHg 66%
    02:00 -1°C° 0 mm 2 mps 738 mmHg 67%
    03:00 -1°C° 0 mm 2 mps 737 mmHg 66%
    04:00 -1°C° 0 mm 2 mps 737 mmHg 65%
    05:00 +1°C° 0 mm 2 mps 736 mmHg 64%
    06:00 +1°C° 0 mm 3 mps 736 mmHg 61%
    07:00 +3°C° 0 mm 3 mps 736 mmHg 58%
    08:00 +5°C° 0 mm 3 mps 735 mmHg 55%
    09:00 +6°C° 0 mm 4 mps 735 mmHg 56%
    10:00 +7°C° 0 mm 4 mps 734 mmHg 56%
    11:00 +8°C° 0 mm 4 mps 734 mmHg 56%
    12:00 +8°C° 0.2 mm 4 mps 734 mmHg 60%
    13:00 +8°C° 0.2 mm 4 mps 733 mmHg 64%
    14:00 +8°C° 0.2 mm 4 mps 733 mmHg 68%
    15:00 +7°C° 0.4 mm 4 mps 733 mmHg 74%
    16:00 +8°C° 0.4 mm 3 mps 732 mmHg 79%
    17:00 +7°C° 0.4 mm 3 mps 732 mmHg 85%
    18:00 +7°C° 0 mm 3 mps 732 mmHg 88%
    19:00 +6°C° 0 mm 2 mps 732 mmHg 92%
    20:00 +6°C° 0 mm 2 mps 732 mmHg 95%
    21:00 +6°C° 0.1 mm 2 mps 732 mmHg 96%
    22:00 +6°C° 0.1 mm 2 mps 732 mmHg 96%
    23:00 +6°C° 0.1 mm 2 mps 732 mmHg 97%

    Day after tomorrow, 25 April, Wednesday

    Time Temperature Precipitation Wind Pressure Humidity
    00:00 +6°C° 0 mm 2 mps 732 mmHg 97%
    01:00 +5°C° 0 mm 2 mps 732 mmHg 97%
    02:00 +5°C° 0 mm 2 mps 732 mmHg 96%
    03:00 +5°C° 0 mm 2 mps 732 mmHg 96%
    04:00 +4°C° 0 mm 2 mps 731 mmHg 96%
    05:00 +3°C° 0 mm 2 mps 731 mmHg 96%
    06:00 +4°C° 0 mm 3 mps 731 mmHg 92%
    07:00 +5°C° 0 mm 3 mps 731 mmHg 88%
    08:00 +6°C° 0 mm 4 mps 730 mmHg 84%
    09:00 +6°C° 0.1 mm 4 mps 730 mmHg 84%
    10:00 +7°C° 0.1 mm 4 mps 730 mmHg 84%
    11:00 +7°C° 0.1 mm 4 mps 730 mmHg 85%
    12:00 +8°C° 0.3 mm 5 mps 730 mmHg 79%
    13:00 +9°C° 0.3 mm 5 mps 729 mmHg 74%
    14:00 +10°C° 0.3 mm 6 mps 729 mmHg 68%
    15:00 +10°C° 0.3 mm 5 mps 729 mmHg 67%
    16:00 +9°C° 0.3 mm 5 mps 730 mmHg 66%
    17:00 +9°C° 0.3 mm 5 mps 730 mmHg 65%
    18:00 +8°C° 0.1 mm 4 mps 730 mmHg 71%
    19:00 +7°C° 0.1 mm 3 mps 730 mmHg 77%
    20:00 +6°C° 0.1 mm 2 mps 730 mmHg 83%
    21:00 +6°C° 0 mm 2 mps 730 mmHg 84%
    22:00 +6°C° 0 mm 2 mps 730 mmHg 86%
    23:00 +4°C° 0 mm 3 mps 730 mmHg 87%

    26 April, Thursday

    Time Temperature Precipitation Wind Pressure Humidity
    00:00 +5°C° 0 mm 2 mps 730 mmHg 89%
    01:00 +4°C° 0 mm 2 mps 730 mmHg 91%
    02:00 +4°C° 0 mm 2 mps 730 mmHg 93%
    03:00 +3°C° 0 mm 2 mps 730 mmHg 92%
    04:00 +2°C° 0 mm 3 mps 730 mmHg 92%
    05:00 +2°C° 0 mm 3 mps 730 mmHg 92%
    06:00 +3°C° 0 mm 3 mps 730 mmHg 87%
    07:00 +4°C° 0 mm 3 mps 731 mmHg 82%
    08:00 +6°C° 0 mm 4 mps 731 mmHg 77%
    09:00 +7°C° 0 mm 4 mps 731 mmHg 69%
    10:00 +10°C° 0 mm 4 mps 731 mmHg 62%
    11:00 +11°C° 0 mm 4 mps 731 mmHg 54%
    12:00 +11°C° 0.3 mm 4 mps 731 mmHg 54%
    13:00 +12°C° 0.3 mm 4 mps 731 mmHg 53%
    14:00 +12°C° 0.3 mm 4 mps 731 mmHg 52%
    15:00 +11°C° 0.3 mm 4 mps 732 mmHg 55%
    16:00 +11°C° 0.3 mm 4 mps 732 mmHg 58%
    17:00 +11°C° 0.3 mm 4 mps 732 mmHg 61%
    18:00 +9°C° 0.1 mm 3 mps 732 mmHg 67%
    19:00 +8°C° 0.1 mm 3 mps 732 mmHg 72%
    20:00 +7°C° 0.1 mm 2 mps 732 mmHg 78%
    21:00 +6°C° 0.1 mm 2 mps 732 mmHg 80%
    22:00 +6°C° 0.1 mm 2 mps 733 mmHg 82%
    23:00 +5°C° 0.1 mm 3 mps 733 mmHg 84%

    27 April, Friday

    Time Temperature Precipitation Wind Pressure Humidity
    00:00 +5°C° 0.3 mm 3 mps 733 mmHg 86%
    01:00 +5°C° 0.3 mm 3 mps 733 mmHg 88%
    02:00 +4°C° 0.3 mm 3 mps 733 mmHg 90%
    03:00 +4°C° 0.2 mm 3 mps 734 mmHg 89%
    04:00 +4°C° 0.2 mm 3 mps 734 mmHg 88%
    05:00 +3°C° 0.2 mm 3 mps 735 mmHg 87%
    06:00 +4°C° 0 mm 3 mps 735 mmHg 83%
    07:00 +5°C° 0 mm 4 mps 736 mmHg 78%
    08:00 +6°C° 0 mm 4 mps 736 mmHg 74%
    09:00 +7°C° 0.1 mm 4 mps 737 mmHg 68%
    10:00 +8°C° 0.1 mm 4 mps 737 mmHg 62%
    11:00 +9°C° 0.1 mm 5 mps 737 mmHg 56%
    12:00 +10°C° 0.3 mm 5 mps 737 mmHg 55%
    13:00 +10°C° 0.3 mm 5 mps 738 mmHg 54%
    14:00 +12°C° 0.3 mm 4 mps 738 mmHg 53%
    15:00 +11°C° 0.4 mm 4 mps 738 mmHg 57%
    16:00 +11°C° 0.4 mm 4 mps 738 mmHg 60%
    17:00 +11°C° 0.4 mm 4 mps 738 mmHg 63%
    18:00 +9°C° 0.4 mm 3 mps 739 mmHg 71%
    19:00 +8°C° 0.4 mm 3 mps 739 mmHg 79%
    20:00 +6°C° 0.4 mm 2 mps 739 mmHg 87%
    21:00 +6°C° 0.1 mm 2 mps 740 mmHg 89%
    22:00 +5°C° 0.1 mm 2 mps 740 mmHg 91%
    23:00 +4°C° 0.1 mm 2 mps 741 mmHg 93%

    28 April, Saturday

    Time Temperature Precipitation Wind Pressure Humidity
    00:00 +4°C° 0 mm 2 mps 741 mmHg 93%
    01:00 +4°C° 0 mm 2 mps 742 mmHg 94%
    02:00 +3°C° 0 mm 2 mps 742 mmHg 94%
    03:00 +3°C° 0 mm 2 mps 742 mmHg 94%
    04:00 +3°C° 0 mm 2 mps 743 mmHg 95%
    05:00 +4°C° 0 mm 1 mps 743 mmHg 95%
    06:00 +4°C° 0 mm 2 mps 743 mmHg 89%
    07:00 +6°C° 0 mm 2 mps 743 mmHg 82%
    08:00 +8°C° 0 mm 2 mps 744 mmHg 76%
    09:00 +9°C° 0 mm 2 mps 744 mmHg 68%
    10:00 +10°C° 0 mm 2 mps 744 mmHg 60%
    11:00 +11°C° 0 mm 3 mps 744 mmHg 52%
    12:00 +12°C° 0 mm 3 mps 744 mmHg 49%
    13:00 +12°C° 0 mm 3 mps 744 mmHg 45%
    14:00 +13°C° 0 mm 3 mps 744 mmHg 42%
    15:00 +13°C° 0 mm 3 mps 743 mmHg 42%
    16:00 +14°C° 0 mm 2 mps 743 mmHg 42%
    17:00 +14°C° 0 mm 2 mps 743 mmHg 43%
    18:00 +12°C° 0 mm 2 mps 743 mmHg 49%
    19:00 +10°C° 0 mm 1 mps 743 mmHg 56%
    20:00 +9°C° 0 mm 1 mps 743 mmHg 62%
    21:00 +9°C° 0.1 mm 1 mps 742 mmHg 64%
    22:00 +8°C° 0.1 mm 1 mps 742 mmHg 66%
    23:00 +8°C° 0.1 mm 1 mps 742 mmHg 68%
    Show more